Showing default

TELKOMSAT 113BT, 58995

Orbit data source: Space-Track

TELKOMSAT 113BT, 58995 is a payload satellite owned by Telkom (ID) in GEO that was launched on Tue, 20 Feb 2024 UTC via an FALCON 9 launch vehicle from the Air Force Eastern Test Range (AFETR). Payload-class satellites include a variety of spacecraft equipped with specific instruments for various scientific and technological missions. These include communications satellites like Starlink; space stations such as the ISS; scientific satellites like the Hubble; Earth observation satellites from companies like Planet Labs, Umbra, and HawkEye 360; GPS; miniature CubeSats for education and research; and military/defense satellites.

Not visible in the next 10 days
Identifier
58995, 2024-035A
Orbit
GEO
Last TLE update
17 hours ago
Origin
Manufacturer
Thales Alenia
Mission
Operational Commercial Communications
Bus & Motor
SPACEBUS 4000B2, S400
Mass
4,000 kg wet, ~2,500 kg dry
Launch date (UTC)
2024-02-20 (1 year ago)
Launch vehicle
FALCON 9
Launch site
Air Force Eastern Test Range (AFETR)
Object type
Payload
Rocket body
Debris
Shape & HBR
Box + 2 Pan, 30 m
Radar Cross Section
48.465 m², Large (>1 m²)

Expand to show TLE details & history

TLE from 17 hours ago
0 TELKOMSAT 113BT
1 58995U 24035A   25191.77316630 -.00000346  00000-0  00000-0 0  9995
2 58995   0.0156  30.6021 0001439  82.9603 206.6577  1.00270246  5164
Epoch: 2025-07-10T18:33Z
TLE epoch observation values (Epoch: 2025-07-10T18:33:21.568Z)
Latitude
-0.04029°
Longitude
112.94186°
Altitude
35,791.97 km
Speed
3.074 km/s
True Right ascension
21h 20m 51s
True Declination
0° 02' 25"
Sunlit
Object was in daylight at epoch
Visualization orbit readout
Latitude
-0.00392°
Longitude
10.13192°
Altitude
35,788.088 km
Speed
3.075 km/s
Apparent Right ascension
14h 14m 36s
Apparent Declination
-5° 02' 51"
Sunlit
Object is in daylight
Visualization observer readout
Local Sidereal Time
23:57:18
Azimuth
309.34° NW
Elevation
-43.426°
Doppler factor
1
Orbital elements
Apogee altitude
35,794.164 km
Perigee altitude
35,782.029 km
Semi-major axis
42,166.234 km
Eccentricity
0.00014
Inclination
0.0156°
RAAN
30.6021°
Arg. of periapsis
82.9603°
True anomaly
Unknown
Mean anomaly
206.6577°
Eccentric anomaly
Unknown
Mean motion
0.25067 °/min
Orbital period
1,436.17 mins
BSTAR
0
Loading historical data...
58995 neighbors
Loading maneuver chart data...
Loading SW <> Apogee altitude chart data...
Loading historical data...
Loading historical data...
Loading historical data...
Loading historical data...
Loading historical data...
Loading historical data...
Loading historical data...
Other satellites on launch #35 in the year 2024 (2024-02-20 UTC)

TELKOMSAT 113BT Visibility

Observer location: undefined°, undefined°

TELKOMSAT 113BT is likely not visible in the next few days
Span
Click to sort rows by Start time (UTC) header in descending order
Start Az.
Max El. time (UTC)
Max El. Az.
Max El.
End time (UTC)
End Az.
|